FENGYUN 1C DEB

Satellite information

Favourite Embed

Satellite Type and Status

DEBRISIN ORBIT

Key statistics

Satellite FENGYUN 1C DEB at a glance.

Uptime

9500

Days in orbit

Revolutions

≈ 14.0

Per day

Orbit

SSO

Sun Synchronous Orbit

Inclination

98.9

Latest

Satellite identification and parameters

Extended collection of information and parameters for FENGYUN 1C DEB.

Object identification

Identified? True

Debris? True

Object name: FENGYUN 1C DEB

International designator: 1999-025CYW

Object number (NORAD): 32353

Object ID (CCSDS): 32353

Country: PEOPLES REPUBLIC OF CHINA (PRC)

Current information (Y/N): Y

RCS size: SMALL

Orbital parameters

Period: 102.711 minutes

Inclination: 98.9205 deg

SMA: 7265.036 km

Apoapsis: 979.955 km

Periapsis: 793.847 km

RAAN: 313.5145 deg

Eccentricy: 0.0128085

Argument of periapsis: 74.5156 deg

Mean anomaly: 287.0112 deg

Mean motion: 14.01993776 rev/day

Mean motion (dot): 0.0000405 rev/day2

B* drag term: 0.0024969 1/REarth

Two-line elements (TLE)

Creation date: May 12, 2025, 11:06 p.m.

Reference frame: TEME

Reference center: EARTH

Epoch: May 12, 2025, 6:40 p.m. UTC

TLE line 0: 0 FENGYUN 1C DEB

TLE line 1: 1 32353U 99025CYW 25132.77840715 .00004050 00000-0 24969-2 0 9994

TLE line 2: 2 32353 98.9205 313.5145 0128085 74.5156 287.0112 14.01993776904635

Live tracking on map

Real-time ground track for satellite FENGYUN 1C DEB.

In-orbit conjunctions

A list of the most updated potential collisions computed for object FENGYUN 1C DEB.

Target Orbit TCA Probability of collision Miss distance Type
COSMOS 894 DEB LEO 2025-03-08 04:39:30 0.0001351425 60.0 (m) DEBRIS
COSMOS 586 LEO 2024-09-25 03:15:54 0.001775492 45.0 (m) PAYLOAD

Associated space launch

Chinese polar orbiting meteorological satellite

FENGYUN 1C DEB was lifted into orbit during the mission ‘Long March 4B | Feng Yun 1C’, on board a Long March 4B space rocket.

The launch took place on May 10, 1999, 1:33 a.m. from Launch Complex 7.

For more information about the launch, click the button.

Launch to space Long March 4B | Feng Yun 1C
Long March 4B | Feng Yun 1C

Agency: N/A

Status: Launch Successful

Launch date: May 10, 1999, 1:33 a.m. UTC

Rocket: Long March 4B

Launch pad: Launch Complex 7

Location: Taiyuan Satellite Launch Center, People's Republic of China

...

Latest news about this satellite

There are no fresh news available about this satellite. Check back as we update our databases every day.


Newsletter sign-up

Weekly statistics, charts and insights to help you stay on top of the space industry.